Previsão horária em Cerekwica

Hoje, 25 Julho, Domingo

Tempo Temperatura Precipitação Vento Pressão Humidade
00:00 +19°C° 0 mm 3 m/s 750 mmHg 72%
01:00 +19°C° 0 mm 3 m/s 750 mmHg 73%
02:00 +18°C° 0 mm 3 m/s 750 mmHg 74%
03:00 +18°C° 0 mm 3 m/s 750 mmHg 75%
04:00 +18°C° 0 mm 3 m/s 750 mmHg 76%
05:00 +19°C° 0 mm 3 m/s 750 mmHg 72%
06:00 +21°C° 0 mm 3 m/s 750 mmHg 68%
07:00 +22°C° 0 mm 4 m/s 750 mmHg 63%
08:00 +25°C° 0 mm 4 m/s 750 mmHg 59%
09:00 +26°C° 0 mm 4 m/s 749 mmHg 55%
10:00 +28°C° 0 mm 5 m/s 749 mmHg 51%
11:00 +28°C° 0 mm 5 m/s 749 mmHg 49%
12:00 +29°C° 0 mm 5 m/s 749 mmHg 47%
13:00 +29°C° 0 mm 5 m/s 749 mmHg 45%
14:00 +29°C° 0 mm 4 m/s 749 mmHg 47%
15:00 +28°C° 0 mm 4 m/s 749 mmHg 49%
16:00 +28°C° 0 mm 3 m/s 749 mmHg 51%
17:00 +27°C° 0 mm 2 m/s 749 mmHg 57%
18:00 +25°C° 0 mm 2 m/s 749 mmHg 62%
19:00 +24°C° 0 mm 1 m/s 749 mmHg 68%
20:00 +23°C° 0 mm 1 m/s 749 mmHg 71%
21:00 +22°C° 0 mm 1 m/s 749 mmHg 75%
22:00 +20°C° 0 mm 2 m/s 749 mmHg 78%
23:00 +19°C° 0 mm 2 m/s 749 mmHg 80%

Amanhã, 26 Julho, Segunda-feira

Tempo Temperatura Precipitação Vento Pressão Humidade
00:00 +19°C° 0 mm 2 m/s 749 mmHg 83%
01:00 +18°C° 0 mm 3 m/s 749 mmHg 85%
02:00 +19°C° 0 mm 3 m/s 749 mmHg 82%
03:00 +19°C° 0 mm 3 m/s 749 mmHg 79%
04:00 +19°C° 0 mm 3 m/s 749 mmHg 75%
05:00 +20°C° 0 mm 3 m/s 749 mmHg 74%
06:00 +21°C° 0 mm 3 m/s 749 mmHg 73%
07:00 +21°C° 0 mm 4 m/s 749 mmHg 73%
08:00 +24°C° 0 mm 3 m/s 749 mmHg 67%
09:00 +26°C° 0 mm 3 m/s 749 mmHg 62%
10:00 +27°C° 0 mm 3 m/s 749 mmHg 56%
11:00 +28°C° 0 mm 3 m/s 748 mmHg 53%
12:00 +29°C° 0 mm 2 m/s 748 mmHg 49%
13:00 +30°C° 0 mm 2 m/s 748 mmHg 46%
14:00 +30°C° 0 mm 2 m/s 748 mmHg 48%
15:00 +30°C° 0 mm 2 m/s 748 mmHg 50%
16:00 +29°C° 0 mm 1 m/s 748 mmHg 52%
17:00 +28°C° 0 mm 2 m/s 748 mmHg 55%
18:00 +28°C° 0 mm 2 m/s 747 mmHg 58%
19:00 +27°C° 0 mm 2 m/s 747 mmHg 62%
20:00 +26°C° 0 mm 1 m/s 747 mmHg 65%
21:00 +24°C° 0 mm 1 m/s 747 mmHg 68%
22:00 +23°C° 0 mm 1 m/s 748 mmHg 72%
23:00 +23°C° 0 mm 1 m/s 748 mmHg 75%

Depois de amanhã, 27 Julho, Terça-feira

Tempo Temperatura Precipitação Vento Pressão Humidade
00:00 +22°C° 0 mm 1 m/s 748 mmHg 77%
01:00 +22°C° 0 mm 1 m/s 748 mmHg 80%
02:00 +20°C° 0 mm 2 m/s 748 mmHg 82%
03:00 +20°C° 0 mm 2 m/s 748 mmHg 85%
04:00 +19°C° 0 mm 3 m/s 748 mmHg 87%
05:00 +20°C° 0 mm 3 m/s 748 mmHg 83%
06:00 +21°C° 0 mm 3 m/s 748 mmHg 79%
07:00 +22°C° 0 mm 3 m/s 749 mmHg 75%
08:00 +22°C° 0 mm 3 m/s 749 mmHg 74%
09:00 +23°C° 0 mm 4 m/s 749 mmHg 74%
10:00 +23°C° 0 mm 4 m/s 749 mmHg 73%
11:00 +25°C° 0 mm 4 m/s 749 mmHg 66%
12:00 +27°C° 0 mm 4 m/s 749 mmHg 60%
13:00 +28°C° 0 mm 4 m/s 749 mmHg 53%
14:00 +29°C° 0 mm 4 m/s 749 mmHg 49%
15:00 +29°C° 0 mm 3 m/s 749 mmHg 46%
16:00 +30°C° 0 mm 3 m/s 749 mmHg 42%
17:00 +29°C° 0 mm 3 m/s 749 mmHg 47%
18:00 +27°C° 0 mm 2 m/s 749 mmHg 51%
19:00 +26°C° 0 mm 2 m/s 749 mmHg 56%
20:00 +25°C° 0 mm 1 m/s 749 mmHg 59%
21:00 +24°C° 0 mm 1 m/s 749 mmHg 61%
22:00 +23°C° 0 mm 1 m/s 749 mmHg 64%
23:00 +22°C° 0 mm 1 m/s 749 mmHg 66%

28 Julho, Quarta-feira

Tempo Temperatura Precipitação Vento Pressão Humidade
00:00 +21°C° 0 mm 1 m/s 749 mmHg 68%
01:00 +20°C° 0 mm 2 m/s 749 mmHg 71%
02:00 +20°C° 0 mm 2 m/s 749 mmHg 71%
03:00 +19°C° 0 mm 2 m/s 749 mmHg 71%
04:00 +19°C° 0 mm 3 m/s 749 mmHg 71%
05:00 +21°C° 0 mm 3 m/s 749 mmHg 67%
06:00 +22°C° 0 mm 3 m/s 749 mmHg 63%
07:00 +24°C° 0 mm 3 m/s 750 mmHg 59%
08:00 +26°C° 0 mm 3 m/s 749 mmHg 55%
09:00 +27°C° 0 mm 4 m/s 749 mmHg 50%
10:00 +29°C° 0 mm 4 m/s 749 mmHg 46%
11:00 +29°C° 0 mm 4 m/s 749 mmHg 44%
12:00 +29°C° 0 mm 4 m/s 749 mmHg 42%
13:00 +30°C° 0 mm 5 m/s 749 mmHg 40%
14:00 +29°C° 0 mm 5 m/s 749 mmHg 42%
15:00 +28°C° 0 mm 5 m/s 749 mmHg 44%
16:00 +27°C° 0 mm 5 m/s 749 mmHg 46%
17:00 +25°C° 0.1 mm 4 m/s 749 mmHg 55%
18:00 +23°C° 0.1 mm 4 m/s 750 mmHg 65%
19:00 +21°C° 0.1 mm 3 m/s 750 mmHg 75%
20:00 +20°C° 0 mm 3 m/s 750 mmHg 78%
21:00 +19°C° 0 mm 3 m/s 750 mmHg 82%
22:00 +18°C° 0 mm 3 m/s 750 mmHg 85%
23:00 +18°C° 0 mm 3 m/s 750 mmHg 89%

29 Julho, Quinta-feira

Tempo Temperatura Precipitação Vento Pressão Humidade
00:00 +17°C° 0 mm 3 m/s 751 mmHg 92%
01:00 +17°C° 0 mm 3 m/s 751 mmHg 95%
02:00 +16°C° 0 mm 2 m/s 751 mmHg 95%
03:00 +16°C° 0 mm 2 m/s 751 mmHg 95%
04:00 +16°C° 0 mm 2 m/s 751 mmHg 95%
05:00 +17°C° 0 mm 2 m/s 751 mmHg 88%
06:00 +19°C° 0 mm 2 m/s 751 mmHg 81%
07:00 +20°C° 0 mm 2 m/s 751 mmHg 74%
08:00 +23°C° 0 mm 2 m/s 751 mmHg 66%
09:00 +25°C° 0 mm 3 m/s 751 mmHg 59%
10:00 +26°C° 0 mm 3 m/s 751 mmHg 51%
11:00 +27°C° 0 mm 3 m/s 751 mmHg 47%
12:00 +28°C° 0 mm 4 m/s 750 mmHg 43%
13:00 +29°C° 0 mm 4 m/s 750 mmHg 39%
14:00 +29°C° 0 mm 3 m/s 750 mmHg 42%
15:00 +28°C° 0 mm 3 m/s 750 mmHg 45%
16:00 +27°C° 0 mm 2 m/s 749 mmHg 47%
17:00 +26°C° 0 mm 2 m/s 749 mmHg 49%
18:00 +26°C° 0 mm 1 m/s 749 mmHg 52%
19:00 +25°C° 0 mm 1 m/s 749 mmHg 54%
20:00 +25°C° 0 mm 1 m/s 749 mmHg 54%
21:00 +24°C° 0 mm 2 m/s 749 mmHg 55%
22:00 +24°C° 0 mm 2 m/s 748 mmHg 55%
23:00 +23°C° 0 mm 2 m/s 748 mmHg 57%

30 Julho, Sexta-feira

Tempo Temperatura Precipitação Vento Pressão Humidade
00:00 +23°C° 0 mm 2 m/s 748 mmHg 58%
01:00 +21°C° 0 mm 2 m/s 748 mmHg 60%
02:00 +21°C° 0 mm 2 m/s 748 mmHg 60%
03:00 +21°C° 0 mm 2 m/s 747 mmHg 60%
04:00 +21°C° 0 mm 2 m/s 747 mmHg 60%
05:00 +21°C° 0.1 mm 3 m/s 747 mmHg 61%
06:00 +22°C° 0.1 mm 3 m/s 747 mmHg 62%
07:00 +23°C° 0.1 mm 4 m/s 747 mmHg 62%
08:00 +23°C° 0.3 mm 4 m/s 747 mmHg 63%
09:00 +25°C° 0.3 mm 4 m/s 746 mmHg 63%
10:00 +25°C° 0.3 mm 4 m/s 746 mmHg 63%
11:00 +27°C° 0.1 mm 5 m/s 746 mmHg 60%
12:00 +28°C° 0.1 mm 6 m/s 745 mmHg 57%
13:00 +29°C° 0.1 mm 6 m/s 745 mmHg 54%
14:00 +28°C° 0.5 mm 6 m/s 745 mmHg 59%
15:00 +27°C° 0.5 mm 6 m/s 745 mmHg 65%
16:00 +26°C° 0.5 mm 5 m/s 746 mmHg 70%
17:00 +25°C° 0 mm 5 m/s 746 mmHg 69%
18:00 +23°C° 0 mm 4 m/s 746 mmHg 68%
19:00 +23°C° 0 mm 4 m/s 746 mmHg 68%
20:00 +22°C° 0 mm 3 m/s 746 mmHg 70%
21:00 +20°C° 0 mm 2 m/s 746 mmHg 72%
22:00 +19°C° 0 mm 2 m/s 746 mmHg 74%
23:00 +19°C° 0 mm 2 m/s 746 mmHg 76%
Mostrar mais

Necessitamos do seu Consentimento

A Meteoprog e os seus Fornecedores de Serviços podem armazenar e aceder a dados pessoais como cookies, identificadores do dispositivo ou outras tecnologias semelhantes existentes no seu dispositivo e processar estes dados para personalizar conteúdos e anúncios, assim como funcionalidades nas redes sociais e análise de tráfego.

  • Armazenar e/ou aceder a informações no seu dispositivo

    Os cookies, identificadores do dispositivo ou outras informações podem ser armazenados ou acedidos no seu dispositivo, para os fins acima indicados.

  • Anúncios e conteúdos personalizados, medição de anúncios e conteúdos, dados sobre o público-alvo e desenvolvimento de produtos

    Os anúncios e os conteúdos podem ser personalizados com base num perfil. Podem ser adicionados dados adicionais para uma maior personalização dos anúncios e dos conteúdos. A eficácia dos anúncios e dos conteúdos pode ser medida. Podem ser obtidas informações sobre o público que visualizou os anúncios e os conteúdos. Estes dados podem ser usados para desenvolver ou melhorar sistemas, softwares ou a experiência do utilizador.

Ao clicar em "Eu concordo”, permitirá o uso de cookies, identificadores do dispositivo e web beacons mencionados ou outras tecnologias semelhantes. As configurações do navegador do seu dispositivo podem ser alteradas.

Para certos fins, podem ser invocados interesses legítimos ao invés de consentimento. Pode ler mais informação sobre este assunto na nossa Política de Privacidade e Cookies.